This is the latest recevied weather packets stored in our database for station/object 5B4ALR-13. If no packets are shown the sender has not sent any weather packets the latest 10 day(s).
| Time | Temp. | Humidity | Pressure | Rain* | Wind** | Luminosity | Snow |
|---|---|---|---|---|---|---|---|
| 1778371870 | 21.67° C | 31% | 1015.3 hPa | 0 mm | - | - | - |
| 1778371270 | 21.67° C | 32% | 1015.3 hPa | 0 mm | - | - | - |
| 1778370670 | 21.67° C | 31% | 1015.3 hPa | 0 mm | - | - | - |
| 1778370070 | 21.67° C | 34% | 1015.3 hPa | 0 mm | - | - | - |
| 1778369470 | 22.22° C | 36% | 1015.4 hPa | 0 mm | - | - | - |
| 1778368870 | 22.22° C | 37% | 1015.4 hPa | 0 mm | - | - | - |
| 1778368270 | 22.22° C | 39% | 1015.5 hPa | 0 mm | - | - | - |
| 1778367670 | 22.22° C | 40% | 1015.6 hPa | 0 mm | - | - | - |
| 1778367070 | 22.22° C | 43% | 1015.7 hPa | 0 mm | - | - | - |
| 1778366470 | 21.67° C | 46% | 1015.9 hPa | 0 mm | - | - | - |
| 1778365870 | 21.67° C | 48% | 1016.1 hPa | 0 mm | - | - | - |
| 1778365270 | 21.67° C | 48% | 1016.2 hPa | 0 mm | - | - | - |
| 1778364670 | 21.67° C | 49% | 1016.4 hPa | 0 mm | - | - | - |
| 1778364070 | 21.67° C | 51% | 1016.6 hPa | 0 mm | - | - | - |
| 1778363470 | 21.67° C | 55% | 1016.6 hPa | 0 mm | - | - | - |
| 1778362870 | 21.67° C | 56% | 1016.7 hPa | 0 mm | - | - | - |
| 1778362270 | 21.67° C | 55% | 1016.8 hPa | 0 mm | - | - | - |
| 1778361670 | 21.67° C | 54% | 1016.8 hPa | 0 mm | - | - | - |
| 1778361070 | 22.22° C | 48% | 1016.7 hPa | 0 mm | - | - | - |
| 1778360470 | 22.78° C | 44% | 1016.6 hPa | 0 mm | - | - | - |
| 1778359870 | 23.33° C | 38% | 1016.6 hPa | 0 mm | - | - | - |
| 1778359270 | 23.33° C | 36% | 1016.5 hPa | 0 mm | - | - | - |
| 1778358670 | 23.89° C | 35% | 1016.5 hPa | 0 mm | - | - | - |
| 1778358070 | 23.89° C | 35% | 1016.4 hPa | 0 mm | - | - | - |
| 1778357470 | 23.33° C | 36% | 1016.2 hPa | 0 mm | - | - | - |
* Rain latest hour (hover to see other rain measurements)
** Current wind speed in m/s (hover to see current wind gust speed)